Regional Weather Roundup
Issued by NWS

Home | Current Version | Previous Version | Graphics & Text | Print | Product List | Glossary On
Versions: 1 2 3 4 5 6 7 8 9 10 11 12 13 14 15 16 17 18 19 20 21 22 23 24 25 26 27 28 29 30 31 32 33 34 35 36 37 38 39 40 41 42 43 44 45 46 47 48 49 50
000
ASUS44 KMEG 021410
RWRTN
TENNESSEE HOURLY STATE WEATHER ROUNDUP
NATIONAL WEATHER SERVICE MEMPHIS TN
800 AM CST FRI DEC 02 2016

TNZ002-004-019-021-049-052-054-088>092-021500-
WEST TENNESSEE

CITY           SKY/WX    TMP DP  RH WIND       PRES   REMARKS
MEMPHIS INTL   MOSUNNY   41  34  76 CALM      30.25R
NWS MEMPHIS      N/A     33 N/A N/A MISG        N/A
JACKSON        SUNNY     32  30  92 CALM      30.25R
DYERSBURG      SUNNY    N/A N/A N/A E3        30.26R
UNION CITY     SUNNY     30  28  93 CALM      30.24R
PARIS          SUNNY     30  27  86 CALM      30.25R
HUNTINGDON     SUNNY     34  30  86 CALM      30.24R
LEXINGTON      SUNNY     30  28  93 CALM      30.23R
$$

TNZ008-025-027-028-033-062-065-066-021500-
NORTH MIDDLE TENNESSEE

CITY           SKY/WX    TMP DP  RH WIND       PRES   REMARKS
NASHVILLE      MOSUNNY   35  30  82 CALM      30.26R
PORTLAND       SUNNY     36  32  87 S5        30.24R WCI  32
CLARKSVILLE    SUNNY     32  29  88 CALM      30.24R
SMYRNA         SUNNY     35  32  88 CALM      30.27R
CROSSVILLE     SUNNY     33  30  88 CALM      30.21R
$$

TNZ061-075-076-078-094-096-097-021500-
SOUTH MIDDLE TENNESSEE

CITY           SKY/WX    TMP DP  RH WIND       PRES   REMARKS
FAYETTEVILLE   SUNNY     39  32  75 CALM      30.25R
TULLAHOMA      SUNNY     32  28  86 CALM      30.25R
WINCHESTER     SUNNY     34  30  86 CALM      30.26R
MCMINNVILLE    SUNNY     30  30 100 CALM      30.25R
COLUMBIA       SUNNY    N/A N/A N/A CALM      30.24R
SHELBYVILLE    SUNNY     34  30  86 SE3       30.26R
$$

TNZ017-018-042-046-047-021500-
NORTHEAST TENNESSEE

CITY           SKY/WX    TMP DP  RH WIND       PRES   REMARKS
TRI CITIES     SUNNY     32  30  92 CALM      30.21R
ELIZABETHTON   SUNNY     32  30  93 CALM      30.21R
$$

TNZ012-013-036-069-073-074-021500-
CENTRAL EAST TENNESSEE

CITY           SKY/WX    TMP DP  RH WIND       PRES   REMARKS
KNOXVILLE      MOSUNNY   37  31  78 SW3       30.24R
OAK RIDGE      SUNNY     35  30  82 CALM      30.25R
DOWNTOWN KNOXV FOG       34  34 100 CALM      30.26R VSB 1/2
GATLINBURG     SUNNY     30  28  93 CALM      30.24R
MORRISTOWN     SUNNY     36  32  87 S5        30.22R WCI  32
JACKSBORO      SUNNY     34  32  93 CALM      30.26R
$$

TNZ083-085-099-021500-
SOUTHEAST TENNESSEE

CITY           SKY/WX    TMP DP  RH WIND       PRES   REMARKS
CHATTANOOGA    MOSUNNY   38  32  79 CALM      30.27R
$$

SKY/WX REPORTED AS FAIR MEANS FEW OR NO CLOUDS BELOW
12 THOUSAND FEET.





USA.gov is the U.S. government's official web portal to all federal, state and local government web resources and services.